Погода в Октябрьском

Россия / Свердловская область     56°38′22″N   60°48′56″E
темп.,
°C
ветер,
м/с
пор.,
м/с
влажн.,
%
обл.,
%
осадки,
мм/ч
давл.,
гПа
погр.,
м
7 мая, пт
пт723:00+5з28630 0.0 1016149
02:00+3з28740 0.0 1018173
05:00+3зюз25821 0.0 102091
08:00+9з3763100 0.0 1020401
11:00+15з344463 0.0 10191145
14:00+19зюз34385 0.0 10191925
17:00+20зюз34335 0.0 10182321
20:00+15юз22496 0.0 101822
8 мая, сб
сб823:00+11з116510 0.0 101910
02:00+9ю11695 0.0 101910
05:00+8юз1171100 0.0 101910
08:00+13ю015599 0.0 1019147
11:00+18ююв1237100 0.0 1018965
14:00+20вюв1129100 0.0 10172732
17:00+20всв222773 0.0 10162593
20:00+15ссз364791 0.0 1017185
9 мая, вс
вс923:00+11ссв286229 0.0 1018135
02:00+10с1272100 0.0 101817
05:00+8с2278100 0.0 101925
08:00+13ссв256052 0.0 1018307
11:00+19св354095 0.0 10181459
14:00+20в352888 0.0 10172694
17:00+18св554194 0.0 1018860
20:00+14с366187 0.0 1019229
10 мая, пн
пн1023:00+11св257991 0.0 1020108
02:00+9ссз118453 0.0 102011
05:00+8с11915 0.1 102110
08:00+14в126617 0.0 1022327
11:00+20ююв224148 0.0 10211133
14:00+23ю233193 0.0 10202828
17:00+19зюз254386 0.0 1020551
20:00+17ююз2451100 0.0 102093
11 мая, вт
вт1123:00+15сз3965100 0.0 1021375
02:00+12зсз2886100 0.1 1021461
05:00+8зсз5991100 5.1 1023484
08:00+8ссз5988100 0.3 1025836
11:00+9с510665 1.4 10271245
14:00+15с58335 0.0 10261917
17:00+16с4732100 0.0 10262165
20:00+14сз25495 0.0 1027141